DAH4001 DTTA-DAAG

Flight info

Callsign DAH4001
Flight time N/A
Altitude 32000
Route KEMIR3C KEMIR UM978 MORJA UA411 BJA J7 LIMON G26 ZEM
Aircraft B738/M-SDE2E3FGHIRWXY/LB1

Departure

Time 2026-04-28 19:16
Airport Tunis Carthage International Airport (DTTA)

Arrival

Time N/A
Airport Houari Boumediene Airport (DAAG)
Time Latitude Longitude Altitude Speed Heading
2026-04-28 18:22 36.84754 10.21886 30 ft 0 kts 218°
2026-04-28 18:58 36.84755 10.21886 30 ft 0 kts 218°
2026-04-28 18:58 36.84764 10.21895 30 ft 2 kts 218°
2026-04-28 18:58 36.84778 10.21909 30 ft 3 kts 218°
2026-04-28 18:59 36.84793 10.21924 30 ft 3 kts 218°
2026-04-28 18:59 36.84808 10.21942 30 ft 3 kts 236°
2026-04-28 18:59 36.84816 10.21965 30 ft 3 kts 254°
2026-04-28 18:59 36.84819 10.21991 30 ft 3 kts 271°
2026-04-28 19:00 36.84816 10.22016 30 ft 3 kts 287°
2026-04-28 19:00 36.84807 10.22039 30 ft 3 kts 301°
2026-04-28 19:00 36.84801 10.22051 30 ft 0 kts 307°
2026-04-28 19:05 36.84805 10.22047 30 ft 2 kts 326°
2026-04-28 19:05 36.84820 10.22063 30 ft 5 kts 85°
2026-04-28 19:05 36.84822 10.22104 30 ft 3 kts 82°
2026-04-28 19:06 36.84826 10.22120 30 ft 0 kts 68°
2026-04-28 19:06 36.84832 10.22137 30 ft 3 kts 58°
2026-04-28 19:06 36.84847 10.22153 30 ft 5 kts 30°
2026-04-28 19:07 36.84888 10.22168 30 ft 6 kts 13°
2026-04-28 19:07 36.84898 10.22171 30 ft 0 kts 13°
2026-04-28 19:07 36.84899 10.22171 30 ft 1 kts 13°
2026-04-28 19:07 36.84915 10.22176 30 ft 4 kts 11°
2026-04-28 19:08 36.84944 10.22187 30 ft 5 kts 30°
2026-04-28 19:08 36.84959 10.22221 30 ft 5 kts 83°
2026-04-28 19:08 36.84954 10.22270 30 ft 6 kts 101°
2026-04-28 19:08 36.84944 10.22329 30 ft 7 kts 102°
2026-04-28 19:09 36.84936 10.22376 30 ft 5 kts 102°
2026-04-28 19:09 36.84949 10.22423 30 ft 7 kts 28°
2026-04-28 19:09 36.85002 10.22441 30 ft 8 kts 13°
2026-04-28 19:09 36.85051 10.22447 30 ft 7 kts 343°
2026-04-28 19:10 36.85078 10.22407 30 ft 7 kts 294°
2026-04-28 19:10 36.85099 10.22345 30 ft 11 kts 292°
2026-04-28 19:10 36.85129 10.22256 30 ft 9 kts 292°
2026-04-28 19:10 36.85149 10.22195 30 ft 7 kts 292°
2026-04-28 19:11 36.85170 10.22132 30 ft 9 kts 292°
2026-04-28 19:11 36.85197 10.22054 30 ft 11 kts 292°
2026-04-28 19:11 36.85226 10.21966 30 ft 11 kts 292°
2026-04-28 19:11 36.85247 10.21902 30 ft 6 kts 292°
2026-04-28 19:12 36.85267 10.21840 30 ft 7 kts 292°
2026-04-28 19:12 36.85280 10.21799 30 ft 7 kts 293°
2026-04-28 19:12 36.85307 10.21755 30 ft 5 kts 323°
2026-04-28 19:12 36.85350 10.21747 30 ft 5 kts 17°
2026-04-28 19:13 36.85389 10.21765 30 ft 7 kts 22°
2026-04-28 19:13 36.85416 10.21792 30 ft 5 kts 91°
2026-04-28 19:13 36.85415 10.21799 30 ft 0 kts 107°
2026-04-28 19:15 36.85411 10.21812 30 ft 6 kts 111°
2026-04-28 19:15 36.85363 10.21958 30 ft 50 kts 112°
2026-04-28 19:15 36.85110 10.22718 32 ft 135 kts 112°
2026-04-28 19:15 36.84857 10.23468 419 ft 148 kts 114°
2026-04-28 19:16 36.84172 10.25045 1530 ft 164 kts 123°
2026-04-28 19:16 36.83543 10.26288 2395 ft 165 kts 122°
2026-04-28 19:16 36.83059 10.27597 3154 ft 171 kts 112°
2026-04-28 19:16 36.82691 10.29075 3619 ft 191 kts 114°
2026-04-28 19:17 36.82134 10.30658 4240 ft 197 kts 125°